Year,Month,Day,Hour,Minute,Value (Times are PST for temperature in C)
2013,08,21,00,00,13.30
2013,08,21,00,01,13.20
2013,08,21,00,02,13.20
2013,08,21,00,03,13.20
2013,08,21,00,04,13.10
2013,08,21,00,05,13.10
2013,08,21,00,06,13.00
2013,08,21,00,07,13.00
2013,08,21,00,08,12.90
2013,08,21,00,09,12.90
2013,08,21,00,10,12.90
2013,08,21,00,11,12.90
2013,08,21,00,12,12.80
2013,08,21,00,13,12.80
2013,08,21,00,14,12.80
2013,08,21,00,15,12.80
2013,08,21,00,16,12.80
2013,08,21,00,17,12.80
2013,08,21,00,18,12.80
2013,08,21,00,19,12.80
2013,08,21,00,20,12.80
2013,08,21,00,21,12.80
2013,08,21,00,22,12.80
2013,08,21,00,23,12.80
2013,08,21,00,24,12.80
2013,08,21,08,35,15.70
2013,08,21,08,36,15.80
2013,08,21,08,37,15.90
2013,08,21,08,38,16.00
2013,08,21,08,39,16.10
2013,08,21,08,40,16.20
2013,08,21,08,41,16.30
2013,08,21,08,42,16.40
2013,08,21,08,43,16.50
2013,08,21,08,44,16.60
2013,08,21,08,45,16.70
2013,08,21,08,46,16.80
2013,08,21,08,47,16.90
2013,08,21,08,48,17.00
2013,08,21,08,49,17.00
2013,08,21,08,50,17.20
2013,08,21,08,51,17.30
2013,08,21,08,52,17.30
2013,08,21,08,53,17.40
2013,08,21,08,54,17.50
2013,08,21,08,55,17.50
2013,08,21,08,56,17.60
2013,08,21,08,57,17.70
2013,08,21,08,58,17.70
2013,08,21,08,59,17.80
2013,08,21,09,00,17.80
2013,08,21,09,01,17.90
2013,08,21,09,02,17.90
2013,08,21,09,03,17.90
2013,08,21,09,04,18.00
2013,08,21,09,05,18.10
2013,08,21,09,06,18.10
2013,08,21,09,07,18.10
2013,08,21,09,08,18.20
2013,08,21,09,09,18.20
2013,08,21,09,10,18.30
2013,08,21,09,11,18.40
2013,08,21,09,12,18.50
2013,08,21,09,13,18.60
2013,08,21,09,14,18.70
2013,08,21,09,15,18.70
2013,08,21,09,16,18.70
2013,08,21,09,17,18.80
2013,08,21,09,18,18.90
2013,08,21,09,19,18.90
2013,08,21,09,20,18.90
2013,08,21,09,21,18.90
2013,08,21,09,22,19.00
2013,08,21,09,23,19.10
2013,08,21,09,24,19.10
2013,08,21,09,25,19.10
2013,08,21,09,26,19.10
2013,08,21,09,27,19.20
2013,08,21,09,28,19.20
2013,08,21,09,29,19.20
2013,08,21,09,30,19.20
2013,08,21,09,31,19.10
2013,08,21,09,32,19.10
2013,08,21,09,33,19.20
2013,08,21,09,34,19.10
2013,08,21,09,35,19.20
2013,08,21,09,36,19.20
2013,08,21,09,37,19.20
2013,08,21,09,38,19.20
2013,08,21,09,39,19.30
2013,08,21,09,40,19.30
2013,08,21,09,41,19.40
2013,08,21,09,42,19.40
2013,08,21,09,43,19.40
2013,08,21,09,44,19.50
2013,08,21,09,45,19.50
2013,08,21,09,46,19.50
2013,08,21,09,47,19.60
2013,08,21,09,48,19.70
2013,08,21,09,49,19.70
2013,08,21,09,50,19.80
2013,08,21,09,51,19.80
2013,08,21,09,52,19.80
2013,08,21,09,53,19.80
2013,08,21,09,54,19.80
2013,08,21,09,55,19.80
2013,08,21,09,56,19.70
2013,08,21,09,57,19.70
2013,08,21,09,58,19.70
2013,08,21,09,59,19.70
2013,08,21,10,00,19.70
2013,08,21,10,01,19.70
2013,08,21,10,02,19.70
2013,08,21,10,03,19.70
2013,08,21,10,04,19.70
2013,08,21,10,05,19.70
2013,08,21,10,06,19.70
2013,08,21,10,07,19.70
2013,08,21,10,08,19.80
2013,08,21,10,09,19.90
2013,08,21,10,10,19.90
2013,08,21,10,11,19.90
2013,08,21,10,12,20.00
2013,08,21,10,13,20.10
2013,08,21,10,14,20.10
2013,08,21,10,15,20.20
2013,08,21,10,16,20.20
2013,08,21,10,17,20.20
2013,08,21,10,18,20.20
2013,08,21,10,19,20.20
2013,08,21,10,20,20.20
2013,08,21,10,21,20.30
2013,08,21,10,22,20.30
2013,08,21,10,23,20.30
2013,08,21,10,24,20.30
2013,08,21,10,25,20.30
2013,08,21,10,26,20.40
2013,08,21,10,27,20.40
2013,08,21,10,28,20.40
2013,08,21,10,29,20.40
2013,08,21,10,30,20.50
2013,08,21,10,31,20.50
2013,08,21,10,32,20.50
2013,08,21,10,33,20.50
2013,08,21,10,34,20.50
2013,08,21,10,35,20.50
2013,08,21,10,36,20.50
2013,08,21,10,37,20.50
2013,08,21,10,38,20.50
2013,08,21,10,39,20.50
2013,08,21,10,40,20.60
2013,08,21,10,41,20.60
2013,08,21,10,42,20.60
2013,08,21,10,43,20.60
2013,08,21,10,44,20.60
2013,08,21,10,45,20.60
2013,08,21,10,46,20.60
2013,08,21,10,47,20.60
2013,08,21,10,48,20.50
2013,08,21,10,49,20.50
2013,08,21,10,50,20.50
2013,08,21,10,51,20.40
2013,08,21,10,52,20.40
2013,08,21,10,53,20.40
2013,08,21,10,54,20.40
2013,08,21,10,55,20.50
2013,08,21,10,56,20.50
2013,08,21,10,57,20.50
2013,08,21,10,58,20.50
2013,08,21,10,59,20.50
2013,08,21,11,00,20.50
2013,08,21,11,01,20.60
2013,08,21,11,02,20.60
2013,08,21,11,03,20.60
2013,08,21,11,04,20.60
2013,08,21,11,05,20.60
2013,08,21,11,06,20.60
2013,08,21,11,07,20.60
2013,08,21,11,08,20.60
2013,08,21,11,09,20.70
2013,08,21,11,10,20.70
2013,08,21,11,11,20.80
2013,08,21,11,12,20.80
2013,08,21,11,13,20.80
2013,08,21,11,14,20.80
2013,08,21,11,15,20.80
2013,08,21,11,16,20.90
2013,08,21,11,17,20.90
2013,08,21,11,18,20.90
2013,08,21,11,19,21.00
2013,08,21,11,20,21.00
2013,08,21,11,21,21.10
2013,08,21,11,22,21.10
2013,08,21,11,23,21.20
2013,08,21,11,24,21.20
2013,08,21,11,25,21.30
2013,08,21,11,26,21.30
2013,08,21,11,27,21.30
2013,08,21,11,28,21.30
2013,08,21,11,29,21.30
2013,08,21,11,30,21.30
2013,08,21,11,31,21.30
2013,08,21,11,32,21.30
2013,08,21,11,33,21.30
2013,08,21,11,34,21.30
2013,08,21,11,35,21.30
2013,08,21,11,36,21.40
2013,08,21,11,37,21.40
2013,08,21,11,38,21.50
2013,08,21,11,39,21.60
2013,08,21,11,40,21.60
2013,08,21,11,41,21.60
2013,08,21,11,42,21.60
2013,08,21,11,43,21.60
2013,08,21,11,44,21.60
2013,08,21,11,45,21.60
2013,08,21,11,46,21.60
2013,08,21,11,47,21.60
2013,08,21,11,48,21.60
2013,08,21,11,49,21.60
2013,08,21,11,50,21.60
2013,08,21,11,51,21.60
2013,08,21,11,52,21.60
2013,08,21,11,53,21.70
2013,08,21,11,54,21.80
2013,08,21,11,55,21.90
2013,08,21,11,56,22.00
2013,08,21,11,57,22.00
2013,08,21,11,58,22.10
2013,08,21,11,59,22.10
2013,08,21,12,00,22.20
2013,08,21,12,01,22.30
2013,08,21,12,02,22.30
2013,08,21,12,03,22.40
2013,08,21,12,04,22.40
2013,08,21,12,05,22.50
2013,08,21,12,06,22.50
2013,08,21,12,07,22.50
2013,08,21,12,08,22.60
2013,08,21,12,09,22.60
2013,08,21,12,10,22.60
2013,08,21,12,11,22.70
2013,08,21,12,12,22.70
2013,08,21,12,13,22.80
2013,08,21,12,14,22.80
2013,08,21,12,15,22.90
2013,08,21,12,16,22.90
2013,08,21,12,17,22.90
2013,08,21,12,18,23.10
2013,08,21,12,19,23.10
2013,08,21,12,20,23.10
2013,08,21,12,21,23.20
2013,08,21,12,22,23.20
2013,08,21,12,23,23.30
2013,08,21,12,24,23.30
2013,08,21,12,25,23.30
2013,08,21,12,26,23.30
2013,08,21,12,27,23.30
2013,08,21,12,28,23.40
2013,08,21,12,29,23.50
2013,08,21,12,30,23.60
2013,08,21,12,31,23.60
2013,08,21,12,32,23.60
2013,08,21,12,33,23.50
2013,08,21,12,34,23.40
2013,08,21,12,35,23.40
2013,08,21,12,36,23.40
2013,08,21,12,37,23.50
2013,08,21,12,38,23.60
2013,08,21,12,39,23.60
2013,08,21,12,40,23.60
2013,08,21,12,41,23.60
2013,08,21,12,42,23.50
2013,08,21,12,43,23.40
2013,08,21,12,44,23.40
2013,08,21,12,45,23.40
2013,08,21,12,46,23.40
2013,08,21,12,47,23.30
2013,08,21,12,48,23.30
2013,08,21,12,49,23.30
2013,08,21,12,50,23.30
2013,08,21,12,51,23.30
2013,08,21,12,52,23.30
2013,08,21,12,53,23.30
2013,08,21,12,54,23.30
2013,08,21,12,55,23.30
2013,08,21,12,56,23.30
2013,08,21,12,57,23.30
2013,08,21,12,58,23.30
2013,08,21,12,59,23.30
2013,08,21,13,00,23.40
2013,08,21,13,01,23.40
2013,08,21,13,02,23.40
2013,08,21,13,03,23.50
2013,08,21,13,04,23.70
2013,08,21,13,05,23.70
2013,08,21,13,06,23.80
2013,08,21,13,07,23.80
2013,08,21,13,08,23.90
2013,08,21,13,09,23.90
2013,08,21,13,10,23.90
2013,08,21,13,11,23.90
2013,08,21,13,12,23.90
2013,08,21,13,13,23.90
2013,08,21,13,14,23.90
2013,08,21,13,15,23.80
2013,08,21,13,16,23.70
2013,08,21,13,17,23.70
2013,08,21,13,18,23.70
2013,08,21,13,19,23.70
2013,08,21,13,20,23.70
2013,08,21,13,21,23.70
2013,08,21,13,22,23.70
2013,08,21,13,23,23.70
2013,08,21,13,24,23.70
2013,08,21,13,25,23.70
2013,08,21,13,26,23.70
2013,08,21,13,27,23.60
2013,08,21,13,28,23.60
2013,08,21,13,29,23.50
2013,08,21,13,30,23.40
2013,08,21,13,31,23.30
2013,08,21,13,32,23.30
2013,08,21,13,33,23.30
2013,08,21,13,34,23.30
2013,08,21,13,35,23.30
2013,08,21,13,36,23.40
2013,08,21,13,37,23.40
2013,08,21,13,38,23.50
2013,08,21,13,39,23.60
2013,08,21,13,40,23.70
2013,08,21,13,41,23.70
2013,08,21,13,42,23.70
2013,08,21,13,43,23.70
2013,08,21,13,44,23.70
2013,08,21,13,45,23.70
2013,08,21,13,46,23.70
2013,08,21,13,47,23.70
2013,08,21,13,48,23.70
2013,08,21,13,49,23.80
2013,08,21,13,50,23.80
2013,08,21,13,51,23.90
2013,08,21,13,52,23.90
2013,08,21,13,53,23.90
2013,08,21,13,54,23.90
2013,08,21,13,55,24.00
2013,08,21,13,56,24.10
2013,08,21,13,57,24.10
2013,08,21,13,58,24.10
2013,08,21,13,59,24.10
2013,08,21,14,00,24.10
2013,08,21,14,01,24.10
2013,08,21,14,02,24.10
2013,08,21,14,03,24.10
2013,08,21,14,04,24.10
2013,08,21,14,05,24.10
2013,08,21,14,06,24.20
2013,08,21,14,07,24.20
2013,08,21,14,08,24.30
2013,08,21,14,09,24.30
2013,08,21,14,10,24.20
2013,08,21,14,11,24.30
2013,08,21,14,12,24.30
2013,08,21,14,13,24.40
2013,08,21,14,14,24.40
2013,08,21,14,15,24.50
2013,08,21,14,16,24.50
2013,08,21,14,17,24.60
2013,08,21,14,18,24.60
2013,08,21,14,19,24.60
2013,08,21,14,20,24.70
2013,08,21,14,21,24.70
2013,08,21,14,22,24.70
2013,08,21,14,23,24.70
2013,08,21,14,24,24.70
2013,08,21,14,25,24.70
2013,08,21,14,26,24.70
2013,08,21,14,27,24.70
2013,08,21,14,28,24.70
2013,08,21,14,29,24.70
2013,08,21,14,30,24.80
2013,08,21,14,31,24.80
2013,08,21,14,32,24.80
2013,08,21,14,33,24.90
2013,08,21,14,34,24.80
2013,08,21,14,35,24.90
2013,08,21,14,36,24.90
2013,08,21,14,37,24.90
2013,08,21,14,38,24.90
2013,08,21,14,39,24.90
2013,08,21,14,40,25.00
2013,08,21,14,41,25.00
2013,08,21,14,42,25.00
2013,08,21,14,43,24.90
2013,08,21,14,44,24.90
2013,08,21,14,45,24.90
2013,08,21,14,46,24.90
2013,08,21,14,47,24.90
2013,08,21,14,48,24.90
2013,08,21,14,49,25.00
2013,08,21,14,50,25.00
2013,08,21,14,51,25.00
2013,08,21,14,52,25.20
2013,08,21,14,53,25.20
2013,08,21,14,54,25.30
2013,08,21,14,55,25.30
2013,08,21,14,56,25.40
2013,08,21,14,57,25.50
2013,08,21,14,58,25.50
2013,08,21,14,59,25.50
2013,08,21,15,00,25.60
2013,08,21,15,01,25.70
2013,08,21,15,02,25.80
2013,08,21,15,03,25.90
2013,08,21,15,04,25.90
2013,08,21,15,05,25.90
2013,08,21,15,06,26.00
2013,08,21,15,07,26.00
2013,08,21,15,08,26.00
2013,08,21,15,09,26.00
2013,08,21,15,10,26.00
2013,08,21,15,11,26.00
2013,08,21,15,12,26.00
2013,08,21,15,13,26.10
2013,08,21,15,14,26.00
2013,08,21,15,15,26.00
2013,08,21,15,16,26.10
2013,08,21,15,17,26.10
2013,08,21,15,18,26.10
2013,08,21,15,19,26.10
2013,08,21,15,20,26.10
2013,08,21,15,21,26.00
2013,08,21,15,22,26.00
2013,08,21,15,23,26.00
2013,08,21,15,24,26.00
2013,08,21,15,25,26.00
2013,08,21,15,26,26.00
2013,08,21,15,27,26.10
2013,08,21,15,28,26.20
2013,08,21,15,29,26.20
2013,08,21,15,30,26.20
2013,08,21,15,31,26.20
2013,08,21,15,32,26.00
2013,08,21,15,33,25.80
2013,08,21,15,34,25.70
2013,08,21,15,35,25.40
2013,08,21,15,36,25.10
2013,08,21,15,37,24.90
2013,08,21,15,38,24.60
2013,08,21,15,39,24.30
2013,08,21,15,40,23.90
2013,08,21,15,41,23.60
2013,08,21,15,42,23.10
2013,08,21,15,43,22.90
2013,08,21,15,44,22.40
2013,08,21,15,45,21.90
2013,08,21,15,46,21.50
2013,08,21,15,47,21.20
2013,08,21,15,48,21.10
2013,08,21,15,49,20.80
2013,08,21,15,50,20.60
2013,08,21,15,51,20.70
2013,08,21,15,52,20.70
2013,08,21,15,53,20.90
2013,08,21,15,54,21.00
2013,08,21,15,55,21.00
2013,08,21,15,56,21.00
2013,08,21,15,57,21.10
2013,08,21,15,58,21.10
2013,08,21,15,59,21.10
2013,08,21,16,00,21.10
2013,08,21,16,01,21.00
2013,08,21,16,02,21.00
2013,08,21,16,03,20.90
2013,08,21,16,04,20.90
2013,08,21,16,05,21.00
2013,08,21,16,06,21.00
2013,08,21,16,07,21.10
2013,08,21,16,08,21.10
2013,08,21,16,09,21.20
2013,08,21,16,10,21.30
2013,08,21,16,11,21.30
2013,08,21,16,12,21.30
2013,08,21,16,13,21.20
2013,08,21,16,14,21.20
2013,08,21,16,15,21.20
2013,08,21,16,16,21.10
2013,08,21,16,17,21.10
2013,08,21,16,18,21.10
2013,08,21,16,19,21.00
2013,08,21,16,20,20.90
2013,08,21,16,21,20.80
2013,08,21,16,22,20.70
2013,08,21,16,23,20.60
2013,08,21,16,24,20.50
2013,08,21,16,25,20.50
2013,08,21,16,26,20.50
2013,08,21,16,27,20.60
2013,08,21,16,28,20.40
2013,08,21,16,29,20.30
2013,08,21,16,30,20.30
2013,08,21,16,31,20.30
2013,08,21,16,32,20.30
2013,08,21,16,33,20.40
2013,08,21,16,34,20.50
2013,08,21,16,35,20.50
2013,08,21,16,36,20.60
2013,08,21,16,37,20.60
2013,08,21,16,38,20.70
2013,08,21,16,39,20.80
2013,08,21,16,40,20.80
2013,08,21,16,41,20.80
2013,08,21,16,42,20.80
2013,08,21,16,43,20.70
2013,08,21,16,44,20.70
2013,08,21,16,45,20.50
2013,08,21,16,46,20.50
2013,08,21,16,47,20.40
2013,08,21,16,48,20.30
2013,08,21,16,49,20.20
2013,08,21,16,50,20.00
2013,08,21,16,51,19.90
2013,08,21,16,52,20.10
2013,08,21,16,53,20.20
2013,08,21,16,54,20.30
2013,08,21,16,55,20.40
2013,08,21,16,56,20.50
2013,08,21,16,57,20.50
2013,08,21,16,58,20.60
2013,08,21,16,59,20.80
2013,08,21,17,00,20.90
2013,08,21,17,01,20.90
2013,08,21,17,02,21.00
2013,08,21,17,03,21.20
2013,08,21,17,04,21.40
2013,08,21,17,05,21.50
2013,08,21,17,06,21.60
2013,08,21,17,07,21.70
2013,08,21,17,08,21.90
2013,08,21,17,09,22.00
2013,08,21,17,10,22.20
2013,08,21,17,11,22.30
2013,08,21,17,12,22.40
2013,08,21,17,13,22.50
2013,08,21,17,14,22.50
2013,08,21,17,15,22.50
2013,08,21,17,16,22.20
2013,08,21,17,17,22.00
2013,08,21,17,18,21.90
2013,08,21,17,19,21.90
2013,08,21,17,20,21.90
2013,08,21,17,21,21.90
2013,08,21,17,22,22.00
2013,08,21,17,23,21.90
2013,08,21,17,24,21.80
2013,08,21,17,25,21.70
2013,08,21,17,26,21.60
2013,08,21,17,27,21.60
2013,08,21,17,28,21.50
2013,08,21,17,29,21.30
2013,08,21,17,30,21.30
2013,08,21,17,31,21.30
2013,08,21,17,32,21.30
2013,08,21,17,33,21.30
2013,08,21,17,34,21.30
2013,08,21,17,35,21.30
2013,08,21,17,36,21.30
2013,08,21,17,37,21.30
2013,08,21,17,38,21.30
2013,08,21,17,39,21.30
2013,08,21,17,40,21.20
2013,08,21,17,41,21.20
2013,08,21,17,42,21.20
2013,08,21,17,43,21.20
2013,08,21,17,44,21.20
2013,08,21,17,45,21.20
2013,08,21,17,46,21.20
2013,08,21,17,47,21.20
2013,08,21,17,48,21.20
2013,08,21,17,49,21.20
2013,08,21,17,50,21.10
2013,08,21,17,51,21.10
2013,08,21,17,52,21.10
2013,08,21,17,53,21.10
2013,08,21,17,54,21.10
2013,08,21,17,55,21.10
2013,08,21,17,56,21.10
2013,08,21,17,57,21.10
2013,08,21,17,58,21.10
2013,08,21,17,59,21.10
2013,08,21,18,00,21.10
2013,08,21,18,01,21.10
2013,08,21,18,02,21.10
2013,08,21,18,03,21.10
2013,08,21,18,04,21.20
2013,08,21,18,05,21.30
2013,08,21,18,06,21.30
2013,08,21,18,07,21.30
2013,08,21,18,08,21.40
2013,08,21,18,09,21.60
2013,08,21,18,10,21.60
2013,08,21,18,11,21.60
2013,08,21,18,12,21.70
2013,08,21,18,13,21.70
2013,08,21,18,14,21.70
2013,08,21,18,15,21.70
2013,08,21,18,16,21.70
2013,08,21,18,17,21.70
2013,08,21,18,18,21.70
2013,08,21,18,19,21.70
2013,08,21,18,20,21.70
2013,08,21,18,21,21.70
2013,08,21,18,22,21.70
2013,08,21,18,23,21.70
2013,08,21,18,24,21.70
2013,08,21,18,25,21.70
2013,08,21,18,26,21.70
2013,08,21,18,27,21.70
2013,08,21,18,28,21.70
2013,08,21,18,29,21.70
2013,08,21,18,30,21.70
2013,08,21,18,31,21.70
2013,08,21,18,32,21.70
2013,08,21,18,33,21.60
2013,08,21,18,34,21.70
2013,08,21,18,35,21.60
2013,08,21,18,36,21.60
2013,08,21,18,37,21.70
2013,08,21,18,38,21.70
2013,08,21,18,39,21.70
2013,08,21,18,40,21.70
2013,08,21,18,41,21.80
2013,08,21,18,42,21.80
2013,08,21,18,43,21.80
2013,08,21,18,44,21.80
2013,08,21,18,45,21.80
2013,08,21,18,46,21.80
2013,08,21,18,47,21.80
2013,08,21,18,48,21.80
2013,08,21,18,49,21.80
2013,08,21,18,50,21.80
2013,08,21,18,51,21.80
2013,08,21,18,52,21.80
2013,08,21,18,53,21.70
2013,08,21,18,54,21.70
2013,08,21,18,55,21.70
2013,08,21,18,56,21.60
2013,08,21,18,57,21.60
2013,08,21,18,58,21.60
2013,08,21,18,59,21.60
2013,08,21,19,00,21.60
2013,08,21,19,01,21.50
2013,08,21,19,02,21.40
2013,08,21,19,03,21.40
2013,08,21,19,04,21.40
2013,08,21,19,05,21.40
2013,08,21,19,06,21.30
2013,08,21,19,07,21.30
2013,08,21,19,08,21.30
2013,08,21,19,09,21.30
2013,08,21,19,10,21.30
2013,08,21,19,11,21.30
2013,08,21,19,12,21.30
2013,08,21,19,13,21.30
2013,08,21,19,14,21.30
2013,08,21,19,15,21.30
2013,08,21,19,16,21.30
2013,08,21,19,17,21.30
2013,08,21,19,18,21.20
2013,08,21,19,19,21.20
2013,08,21,19,20,21.20
2013,08,21,19,21,21.20
2013,08,21,19,22,21.20
2013,08,21,19,23,21.10
2013,08,21,19,24,21.10
2013,08,21,19,25,21.10
2013,08,21,19,26,21.10
2013,08,21,19,27,21.00
2013,08,21,19,28,21.00
2013,08,21,19,29,21.00
2013,08,21,19,30,21.00
2013,08,21,19,31,21.00
2013,08,21,19,32,20.90
2013,08,21,19,33,20.90
2013,08,21,19,34,20.90
2013,08,21,19,35,20.90
2013,08,21,19,36,20.90
2013,08,21,19,37,20.90
2013,08,21,19,38,20.90
2013,08,21,19,39,20.80
2013,08,21,19,40,20.80
2013,08,21,19,41,20.80
2013,08,21,19,42,20.80
2013,08,21,19,43,20.80
2013,08,21,19,44,20.80
2013,08,21,19,45,20.70
2013,08,21,19,46,20.70
2013,08,21,19,47,20.70
2013,08,21,19,48,20.50
2013,08,21,19,49,20.10
2013,08,21,19,50,19.70
2013,08,21,19,51,19.30
2013,08,21,19,52,19.00
2013,08,21,19,53,18.60
2013,08,21,19,54,18.20
2013,08,21,19,55,18.00
2013,08,21,19,56,17.80
2013,08,21,19,57,17.40
2013,08,21,19,58,17.10
2013,08,21,19,59,16.90
2013,08,21,20,00,16.80
2013,08,21,20,01,16.70
2013,08,21,20,02,16.50
2013,08,21,20,03,16.40
2013,08,21,20,04,16.30
2013,08,21,20,05,16.20
2013,08,21,20,06,16.20
2013,08,21,20,07,16.10
2013,08,21,20,08,16.10
2013,08,21,20,09,16.10
2013,08,21,20,10,16.10
2013,08,21,20,11,16.10
2013,08,21,20,12,16.10
2013,08,21,20,13,16.10
2013,08,21,20,14,16.10
2013,08,21,20,15,16.10
2013,08,21,20,16,16.10
2013,08,21,20,17,16.20
2013,08,21,20,18,16.20
2013,08,21,20,19,16.20
2013,08,21,20,20,16.20
2013,08,21,20,21,16.20
2013,08,21,20,22,16.20
2013,08,21,20,23,16.30
2013,08,21,20,24,16.30
2013,08,21,20,25,16.40
2013,08,21,20,26,16.40
2013,08,21,20,27,16.40
2013,08,21,20,28,16.50
2013,08,21,20,29,16.70
2013,08,21,20,30,16.70
2013,08,21,20,31,16.80
2013,08,21,20,32,16.80
2013,08,21,20,33,16.90
2013,08,21,20,34,16.90
2013,08,21,20,35,17.00
2013,08,21,20,36,17.00
2013,08,21,20,37,17.10
2013,08,21,20,38,17.10
2013,08,21,20,39,17.10
2013,08,21,20,40,17.10
2013,08,21,20,41,17.20
2013,08,21,20,42,17.20
2013,08,21,20,43,17.20
2013,08,21,20,44,17.20
2013,08,21,20,45,17.20
2013,08,21,20,46,17.30
2013,08,21,20,47,17.30
2013,08,21,20,48,17.30
2013,08,21,20,49,17.30
2013,08,21,20,50,17.30
2013,08,21,20,51,17.30
2013,08,21,20,52,17.20
2013,08,21,20,53,17.20
2013,08,21,20,54,17.10
2013,08,21,20,55,17.10
2013,08,21,20,56,17.00
2013,08,21,20,57,17.00
2013,08,21,20,58,17.00
2013,08,21,20,59,17.00
2013,08,21,21,00,17.00
2013,08,21,21,01,16.90
2013,08,21,21,02,16.90
2013,08,21,21,03,16.90
2013,08,21,21,04,16.90
2013,08,21,21,05,16.90
2013,08,21,21,06,16.90
2013,08,21,21,07,16.80
2013,08,21,21,08,16.80
2013,08,21,21,09,16.80
2013,08,21,21,10,16.70
2013,08,21,21,11,16.70
2013,08,21,21,12,16.70
2013,08,21,21,13,16.60
2013,08,21,21,14,16.50
2013,08,21,21,15,16.30
2013,08,21,21,16,16.20
2013,08,21,21,17,16.00
2013,08,21,21,18,15.90
2013,08,21,21,19,15.80
2013,08,21,21,20,15.60
2013,08,21,21,21,15.50
2013,08,21,21,22,15.50
2013,08,21,21,23,15.40
2013,08,21,21,24,15.30
2013,08,21,21,25,15.20
2013,08,21,21,26,15.10
2013,08,21,21,27,14.90
2013,08,21,21,28,14.80
2013,08,21,21,29,14.80
2013,08,21,21,30,14.70
2013,08,21,21,31,14.60
2013,08,21,21,32,14.60
2013,08,21,21,33,14.50
2013,08,21,21,34,14.50
2013,08,21,21,35,14.50
2013,08,21,21,36,14.50
2013,08,21,21,37,14.50
2013,08,21,21,38,14.40
2013,08,21,21,39,14.30
2013,08,21,21,40,14.20
2013,08,21,21,41,14.10
2013,08,21,21,42,13.90
2013,08,21,21,43,13.80
2013,08,21,21,44,13.70
2013,08,21,21,45,13.70
2013,08,21,21,46,13.60
2013,08,21,21,47,13.50
2013,08,21,21,48,13.50
2013,08,21,21,49,13.50
2013,08,21,21,50,13.50
2013,08,21,21,51,13.50
2013,08,21,21,52,13.50
2013,08,21,21,53,13.50
2013,08,21,21,54,13.50
2013,08,21,21,55,13.50
2013,08,21,21,56,13.60
2013,08,21,21,57,13.60
2013,08,21,21,58,13.70
2013,08,21,21,59,13.70
2013,08,21,22,00,13.70
2013,08,21,22,01,13.70
2013,08,21,22,02,13.80
2013,08,21,22,03,13.80
2013,08,21,22,04,13.90
2013,08,21,22,05,13.90
2013,08,21,22,06,13.90
2013,08,21,22,07,14.00
2013,08,21,22,08,14.10
2013,08,21,22,09,14.20
2013,08,21,22,10,14.20
2013,08,21,22,11,14.20
2013,08,21,22,12,14.30
2013,08,21,22,13,14.40
2013,08,21,22,14,14.40
2013,08,21,22,15,14.50
2013,08,21,22,16,14.60
2013,08,21,22,17,14.70
2013,08,21,22,18,14.80
2013,08,21,22,19,14.80
2013,08,21,22,20,14.80
2013,08,21,22,21,14.80
2013,08,21,22,22,14.80
2013,08,21,22,23,14.80
2013,08,21,22,24,14.80
2013,08,21,22,25,14.90
2013,08,21,22,26,15.00
2013,08,21,22,27,15.10
2013,08,21,22,28,15.20
2013,08,21,22,29,15.20
2013,08,21,22,30,15.30
2013,08,21,22,31,15.30
2013,08,21,22,32,15.30
2013,08,21,22,33,15.30
2013,08,21,22,34,15.30
2013,08,21,22,35,15.30
2013,08,21,22,36,15.30
2013,08,21,22,37,15.30
2013,08,21,22,38,15.30
2013,08,21,22,39,15.40
2013,08,21,22,40,15.40
2013,08,21,22,41,15.50
2013,08,21,22,42,15.50
2013,08,21,22,43,15.50
2013,08,21,22,44,15.50
2013,08,21,22,45,15.50
2013,08,21,22,46,15.50
2013,08,21,22,47,15.60
2013,08,21,22,48,15.60
2013,08,21,22,49,15.60
2013,08,21,22,50,15.60
2013,08,21,22,51,15.60
2013,08,21,22,52,15.60
2013,08,21,22,53,15.60
2013,08,21,22,54,15.60
2013,08,21,22,55,15.50
2013,08,21,22,56,15.50
2013,08,21,22,57,15.50
2013,08,21,22,58,15.50
2013,08,21,22,59,15.50
2013,08,21,23,00,15.50
2013,08,21,23,01,15.50
2013,08,21,23,02,15.50
2013,08,21,23,03,15.50
2013,08,21,23,04,15.40
2013,08,21,23,05,15.40
2013,08,21,23,06,15.40
2013,08,21,23,07,15.40
2013,08,21,23,08,15.40
2013,08,21,23,09,15.40
2013,08,21,23,10,15.50
2013,08,21,23,11,15.50
2013,08,21,23,12,15.50
2013,08,21,23,13,15.50
2013,08,21,23,14,15.40
2013,08,21,23,15,15.40
2013,08,21,23,16,15.40
2013,08,21,23,17,15.40
2013,08,21,23,18,15.40
2013,08,21,23,19,15.30
2013,08,21,23,20,15.30
2013,08,21,23,21,15.30
2013,08,21,23,22,15.30
2013,08,21,23,23,15.30
2013,08,21,23,24,15.30
2013,08,21,23,25,15.30
2013,08,21,23,26,15.30
2013,08,21,23,27,15.30
2013,08,21,23,28,15.30
2013,08,21,23,29,15.30
2013,08,21,23,30,15.30
2013,08,21,23,31,15.30
2013,08,21,23,32,15.30
2013,08,21,23,33,15.30
2013,08,21,23,34,15.20
2013,08,21,23,35,15.10
2013,08,21,23,36,15.10
2013,08,21,23,37,15.10
2013,08,21,23,38,15.00
2013,08,21,23,39,15.00
2013,08,21,23,40,14.90
2013,08,21,23,41,14.90
2013,08,21,23,42,14.90
2013,08,21,23,43,14.80
2013,08,21,23,44,14.80
2013,08,21,23,45,14.70
2013,08,21,23,46,14.70
2013,08,21,23,47,14.60
2013,08,21,23,48,14.60
2013,08,21,23,49,14.60
2013,08,21,23,50,14.50
2013,08,21,23,51,14.50
2013,08,21,23,52,14.40
2013,08,21,23,53,14.40
2013,08,21,23,54,14.50
2013,08,21,23,55,14.50
2013,08,21,23,56,14.60
2013,08,21,23,57,14.60
2013,08,21,23,58,14.60
2013,08,21,23,59,14.60
